Home   Weather   Fort Drum   Past weeks
Flag for USA

Past Weather in Fort Drum, New York, USA — Yesterday and Last 2 Weeks

Now
68 °F

Scattered clouds.


Feels Like: 68 °F
Forecast: 68 / 53 °F
Wind: 5 mph from Northeast

Location: Fort Drum / Wheeler-Sack U. S. Army Airfield

Current Time: Jun 16, 2019 at 5:25:25 pm

Latest Report: Jun 16, 2019 at 4:56 pm


Visibility: 10 mi

Pressure: 29.85 "Hg

Humidity: 60%

Dew Point: 53 °F

Location of Fort DrumLocation

Past Weather in Fort Drum — Graph

°F

Fort Drum Temperature Yesterday

Maximum temperature yesterday: 74 °F (at 12:56 pm)
Minimum temperature yesterday: 57 °F (at 7:18 pm)
Average temperature yesterday: 62 °F

High & Low Weather Summary for the Past Weeks

 TemperatureHumidityPressure
High84 °F (Jun 9, 2:56 pm)100% (Jun 2, 11:06 am)30.32 "Hg (Jun 2, 11:06 am)
Low43 °F (Jun 3, 5:56 am)15% (Jun 8, 2:56 pm)29.61 "Hg (Jun 13, 11:56 pm)
Average60 °F74%29.89 "Hg
* Reported Jun 1 3:56 pm — Jun 16 3:56 pm, Fort Drum. Weather by CustomWeather, © 2019

Note: Actual official high and low records may vary slightly from our data, if they occured in-between our weather recording intervals... More about our weather records

Advertising

Fort Drum Weather History for the Previous 24 Hours

Scroll right to see more
 ConditionsComfort  
Time TempWeatherWind HumidityBarometerVisibility
3:56 pm
Sun, Jun 16
67 °FPartly sunny.6 mph58%29.84 "Hg10 mi
2:56 pm68 °FOvercast.8 mph60%29.84 "Hg10 mi
1:56 pm67 °FScattered clouds.8 mph64%29.85 "Hg10 mi
12:56 pm65 °FPartly sunny.7 mph66%29.85 "Hg10 mi
11:56 am64 °FPartly sunny.8 mph72%29.86 "Hg10 mi
10:56 am62 °FBroken clouds.9 mph76%29.86 "Hg10 mi
10:26 am61 °FPartly sunny.8 mph94%29.86 "Hg10 mi
10:06 am59 °FScattered clouds.7 mph94%29.86 "Hg10 mi
9:56 am58 °FPartly sunny.10 mph97%29.87 "Hg10 mi
9:36 am57 °FPartly sunny.8 mph100%29.87 "Hg10 mi
8:56 am56 °FMostly cloudy.9 mph98%29.87 "Hg10 mi
8:26 am55 °FMostly cloudy.6 mph100%29.87 "Hg10 mi
8:06 am55 °FLow clouds.7 mph100%29.87 "Hg10 mi
7:56 am55 °FMostly cloudy.5 mph98%29.87 "Hg10 mi
7:16 am55 °FFog.5 mph94%29.87 "Hg4 mi
7:06 am54 °FFog.3 mph100%29.87 "Hg1 mi
5:56 am53 °FFog.No wind98%29.86 "Hg0 mi
5:40 am52 °FFog.No wind100%29.86 "Hg0 mi
5:20 am52 °FFog.No wind100%29.86 "Hg0 mi
5:06 am52 °FFog.No wind100%29.86 "Hg0 mi
4:30 am54 °FFog.No wind100%29.85 "Hg1 mi
4:20 am54 °FFog.No wind94%29.85 "Hg0 mi
3:56 am54 °FFog.No wind97%29.85 "Hg1 mi
3:36 am55 °FFog.No wind94%29.85 "Hg3 mi
3:16 am55 °FFog.No wind100%29.86 "Hg2 mi
2:56 am56 °FFog.No wind96%29.86 "Hg4 mi
2:36 am57 °FMostly cloudy.3 mph100%29.86 "Hg7 mi
1:56 am58 °FFog.No wind97%29.86 "Hg4 mi
1:26 am57 °FFog.5 mph100%29.85 "Hg3 mi
1:06 am57 °FFog.5 mph100%29.85 "Hg5 mi
12:56 am58 °FFog.6 mph97%29.85 "Hg4 mi
11:56 pm
Sat, Jun 15
58 °FFog.7 mph97%29.85 "Hg4 mi
10:56 pm59 °FLow clouds.8 mph96%29.85 "Hg8 mi
10:28 pm59 °FLow clouds.10 mph94%29.85 "Hg10 mi
10:13 pm59 °FDrizzle. Low clouds.9 mph94%29.85 "Hg10 mi
9:57 pm59 °FLow clouds.13 mph94%29.84 "Hg10 mi
9:26 pm57 °FHeavy rain. Fog.9 mph100%29.85 "Hg4 mi
8:56 pm58 °FRain. Fog.10 mph95%29.85 "Hg6 mi
7:56 pm57 °FDrizzle. Fog.10 mph95%29.84 "Hg3 mi
7:28 pm57 °FLight rain. Fog.14 mph94%29.84 "Hg6 mi
7:18 pm57 °FLight rain. Fog.12 mph94%29.84 "Hg5 mi
6:56 pm58 °FLight rain. Fog.9 mph92%29.84 "Hg4 mi
6:39 pm59 °FDrizzle. Mostly cloudy.7 mph88%29.84 "Hg8 mi
6:29 pm59 °FDrizzle. Mostly cloudy.9 mph88%29.84 "Hg10 mi
5:59 pm64 °FDrizzle. Overcast.15 mph68%29.83 "Hg10 mi
5:03 pm64 °FOvercast.9 mph78%29.81 "Hg10 mi
Weather by CustomWeather, © 2019

See weather overview